N954LL KTEB-KBIS

Flight info

Callsign N954LL
Flight time N/A
Altitude 36000
Route COATE Q436 RAAKK GRB
Aircraft CL60/M-SADE3FGHIJ3J4J7P2RWXY/HB1D1

Departure

Time 2026-05-09 16:15
Airport Teterboro Airport (KTEB)

Arrival

Time N/A
Airport Bismarck Municipal Airport (KBIS)
Time Latitude Longitude Altitude Speed Heading
2026-05-09 15:59 40.85564 -74.06194 14 ft 0 kts 307°
2026-05-09 16:10 40.85568 -74.06200 14 ft 3 kts 308°
2026-05-09 16:11 40.85594 -74.06213 14 ft 5 kts 30°
2026-05-09 16:11 40.85580 -74.06161 14 ft 8 kts 127°
2026-05-09 16:11 40.85562 -74.06130 14 ft 2 kts 127°
2026-05-09 16:11 40.85553 -74.06110 14 ft 0 kts 113°
2026-05-09 16:12 40.85552 -74.06109 14 ft 1 kts 113°
2026-05-09 16:12 40.85555 -74.06071 14 ft 6 kts 49°
2026-05-09 16:12 40.85606 -74.06055 14 ft 9 kts
2026-05-09 16:13 40.85677 -74.06049 14 ft 11 kts
2026-05-09 16:13 40.85762 -74.06039 14 ft 8 kts 21°
2026-05-09 16:13 40.85780 -74.05971 14 ft 9 kts 94°
2026-05-09 16:13 40.85778 -74.05885 14 ft 11 kts 90°
2026-05-09 16:14 40.85783 -74.05765 14 ft 14 kts 81°
2026-05-09 16:14 40.85801 -74.05627 14 ft 16 kts 81°
2026-05-09 16:14 40.85815 -74.05490 14 ft 11 kts 100°
2026-05-09 16:14 40.85767 -74.05425 14 ft 4 kts 193°
2026-05-09 16:15 40.85634 -74.05618 14 ft 71 kts 227°
2026-05-09 16:15 40.85096 -74.06406 16 ft 154 kts 227°
2026-05-09 16:15 40.84347 -74.07525 698 ft 170 kts 229°
2026-05-09 16:15 40.83526 -74.08780 1271 ft 187 kts 228°
2026-05-09 16:16 40.82763 -74.10132 1615 ft 182 kts 245°
2026-05-09 16:16 40.82340 -74.11636 2243 ft 175 kts 249°
2026-05-09 16:16 40.81909 -74.13216 3006 ft 198 kts 248°
2026-05-09 16:16 40.81417 -74.15063 3671 ft 230 kts 253°
2026-05-09 16:17 40.81273 -74.17293 3944 ft 250 kts 268°
2026-05-09 16:17 40.81332 -74.19572 4021 ft 246 kts 268°
2026-05-09 16:17 40.81437 -74.21764 4618 ft 241 kts 276°
2026-05-09 16:17 40.82134 -74.23833 5375 ft 261 kts 301°
2026-05-09 16:18 40.83375 -74.25681 6137 ft 272 kts 306°
2026-05-09 16:18 40.84619 -74.27457 6863 ft 275 kts 306°
2026-05-09 16:18 40.85914 -74.29314 7618 ft 277 kts 305°
2026-05-09 16:18 40.87232 -74.31207 8386 ft 278 kts 305°
2026-05-09 16:19 40.88552 -74.33108 9143 ft 281 kts 305°
2026-05-09 16:19 40.89873 -74.35013 9888 ft 282 kts 305°
2026-05-09 16:19 40.91224 -74.36965 10624 ft 296 kts 305°
2026-05-09 16:19 40.92625 -74.39002 11280 ft 312 kts 305°
2026-05-09 16:20 40.94127 -74.41170 12194 ft 319 kts 306°
2026-05-09 16:20 40.95623 -74.43329 13235 ft 320 kts 306°
2026-05-09 16:20 40.97122 -74.45503 14090 ft 325 kts 306°
2026-05-09 16:20 40.98652 -74.47717 14962 ft 328 kts 307°
2026-05-09 16:21 41.00188 -74.49943 15830 ft 332 kts 306°
2026-05-09 16:21 41.01750 -74.52213 16646 ft 336 kts 306°
2026-05-09 16:21 41.03336 -74.54514 17410 ft 341 kts 306°
2026-05-09 16:21 41.04941 -74.56850 18103 ft 345 kts 306°
2026-05-09 16:22 41.06574 -74.59229 18733 ft 351 kts 306°
2026-05-09 16:22 41.08248 -74.61671 19203 ft 362 kts 306°
2026-05-09 16:22 41.09940 -74.64140 19902 ft 365 kts 306°
2026-05-09 16:22 41.11655 -74.66637 20815 ft 360 kts 306°
2026-05-09 16:23 41.13329 -74.69106 21523 ft 360 kts 302°
2026-05-09 16:23 41.14700 -74.71870 22165 ft 356 kts 294°
2026-05-09 16:23 41.15927 -74.74707 22831 ft 359 kts 294°
2026-05-09 16:23 41.17184 -74.77599 23525 ft 362 kts 293°
2026-05-09 16:24 41.18449 -74.80512 24164 ft 366 kts 293°
2026-05-09 16:24 41.19722 -74.83440 24846 ft 367 kts 294°
2026-05-09 16:24 41.21007 -74.86402 25418 ft 372 kts 293°
2026-05-09 16:24 41.22317 -74.89427 25966 ft 376 kts 294°
2026-05-09 16:25 41.23626 -74.92445 26548 ft 378 kts 293°
2026-05-09 16:25 41.24939 -74.95475 27204 ft 378 kts 293°
2026-05-09 16:25 41.26284 -74.98574 27766 ft 380 kts 293°
2026-05-09 16:25 41.27617 -75.01655 28241 ft 382 kts 292°
2026-05-09 16:26 41.28962 -75.04775 28753 ft 384 kts 292°
2026-05-09 16:26 41.30306 -75.07892 29121 ft 388 kts 293°
2026-05-09 16:26 41.31667 -75.11052 29596 ft 389 kts 293°
2026-05-09 16:26 41.33022 -75.14201 30044 ft 391 kts 293°
2026-05-09 16:27 41.34391 -75.17384 30441 ft 393 kts 292°
2026-05-09 16:27 41.35765 -75.20585 30800 ft 395 kts 292°
2026-05-09 16:27 41.37130 -75.23762 31311 ft 393 kts 292°
2026-05-09 16:27 41.38483 -75.26911 31906 ft 389 kts 292°
2026-05-09 16:28 41.39821 -75.30029 32487 ft 385 kts 292°
2026-05-09 16:28 41.41134 -75.33093 33019 ft 381 kts 292°
2026-05-09 16:28 41.42439 -75.36143 33459 ft 379 kts 292°
2026-05-09 16:28 41.43739 -75.39188 33759 ft 381 kts 292°
2026-05-09 16:29 41.45055 -75.42275 34053 ft 381 kts 292°
2026-05-09 16:29 41.46370 -75.45362 34358 ft 382 kts 292°
2026-05-09 16:29 41.47637 -75.48442 34596 ft 380 kts 289°
2026-05-09 16:29 41.48643 -75.51715 34776 ft 378 kts 285°
2026-05-09 16:30 41.49577 -75.54992 34926 ft 381 kts 285°
2026-05-09 16:30 41.50526 -75.58308 35078 ft 382 kts 285°
2026-05-09 16:30 41.51471 -75.61608 35220 ft 382 kts 285°
2026-05-09 16:30 41.52420 -75.64927 35372 ft 383 kts 285°
2026-05-09 16:31 41.53382 -75.68289 35564 ft 383 kts 285°
2026-05-09 16:31 41.54319 -75.71571 35715 ft 383 kts 285°
2026-05-09 16:31 41.55279 -75.74937 35851 ft 385 kts 285°
2026-05-09 16:31 41.56224 -75.78256 35877 ft 388 kts 285°
2026-05-09 16:32 41.58153 -75.85033 35884 ft 388 kts 285°
2026-05-09 16:32 41.60065 -75.91769 35874 ft 391 kts 285°
2026-05-09 16:33 41.61840 -75.98046 35881 ft 399 kts 285°
2026-05-09 16:33 41.63820 -76.05060 35871 ft 407 kts 285°
2026-05-09 16:34 41.65825 -76.12176 35860 ft 409 kts 285°
2026-05-09 16:34 41.67833 -76.19319 35864 ft 410 kts 285°
2026-05-09 16:35 41.69826 -76.26426 35863 ft 409 kts 285°
2026-05-09 16:35 41.71815 -76.33543 35849 ft 409 kts 285°
2026-05-09 16:36 41.75791 -76.47828 35856 ft 410 kts 285°
2026-05-09 16:37 41.77787 -76.55027 35845 ft 410 kts 285°
2026-05-09 16:37 41.79767 -76.62184 35848 ft 409 kts 285°
2026-05-09 16:38 41.81753 -76.69387 35856 ft 411 kts 285°
2026-05-09 16:38 41.83736 -76.76598 35843 ft 411 kts 285°
2026-05-09 16:39 41.85706 -76.83785 35836 ft 410 kts 285°
2026-05-09 16:39 41.87661 -76.90934 35839 ft 410 kts 285°
2026-05-09 16:40 41.89621 -76.98140 35840 ft 411 kts 285°
2026-05-09 16:42 41.96389 -77.23294 35840 ft 391 kts 284°
2026-05-09 16:42 41.97293 -77.26690 35836 ft 382 kts 284°
2026-05-09 16:42 41.98177 -77.29984 35837 ft 371 kts 284°
2026-05-09 16:42 41.99038 -77.33196 35831 ft 361 kts 284°
2026-05-09 16:43 41.99881 -77.36343 35696 ft 357 kts 284°
2026-05-09 16:43 42.00721 -77.39492 35445 ft 357 kts 283°
2026-05-09 16:43 42.01561 -77.42612 35200 ft 356 kts 283°
2026-05-09 16:43 42.02419 -77.45760 34947 ft 355 kts 283°